Change the Weather History Date:

Wednesday, October 10, 2012

  Actual Average (KBLU) Record (KBLU)
Temperature  
Mean Temperature 60 °F -  
Max Temperature 66 °F 63 °F 79 °F (1950)
Min Temperature 53 °F 47 °F 30 °F (1949)
Degree Days  
Heating Degree Days 6    
Growing Degree Days 10 (Base 50)    
Moisture  
Dew Point 39 °F    
Average Humidity 46    
Maximum Humidity 58    
Minimum Humidity 35    
Precipitation  
Precipitation 0.00 in - - ()
Sea Level Pressure  
Sea Level Pressure 29.98 in    
Wind  
Wind Speed 2 mph ()    
Max Wind Speed 9 mph    
Max Gust Speed -    
Visibility 9.9 miles    
Events      
Averages and records for this station are not official NWS values.
T = Trace of Precipitation, MM = Missing Value Source: Averaged Metar Reports

Daily Weather History Graph

Daily Weather History Graph

Search for Another Location

Airport or City:

Trip Planner

Search our weather history database for the weather conditions in past years. The results will help you decide how hot, cold, wet, or windy it might be!

Date:

Astronomy

Oct. 10, 2012 Rise Set
Actual Time 7:09 AM PDT 6:31 PM PDT
Civil Twilight 6:42 AM PDT 6:58 PM PDT
Nautical Twilight 6:11 AM PDT 7:29 PM PDT
Astronomical Twilight 5:40 AM PDT 8:00 PM PDT
Moon 1:52 AM PDT (10/10) 3:35 PM PDT (10/10)
Length of Visible Light 12h 16m
Length of Day
11h 22m
Waning Crescent, 26% of the Moon is Illuminated
Oct 10
Waning Crescent
Oct 15
New
Oct 21
First Quarter
Oct 29
Full
Nov 6
Last Quarter

Hourly Weather History & Observations

Time (PDT) Temp. Dew Point Humidity Pressure Visibility Wind Dir Wind Speed Gust Speed Precip Events Conditions
12:15 AM 55.4 °F 39.2 °F 54% 30.02 in 10.0 mi Calm Calm - N/A   Scattered Clouds
12:35 AM 55.4 °F 39.2 °F 54% 30.02 in 10.0 mi Calm Calm - N/A   Clear
12:55 AM 55.4 °F 41.0 °F 58% 30.02 in 10.0 mi NE 4.6 mph - N/A   Mostly Cloudy
1:15 AM 57.2 °F 39.2 °F 51% 30.01 in 10.0 mi Calm Calm - N/A   Overcast
1:35 AM 57.2 °F 39.2 °F 51% 30.01 in 10.0 mi Calm Calm - N/A   Overcast
1:55 AM 57.2 °F 39.2 °F 51% 30.01 in 10.0 mi NE 3.5 mph - N/A   Overcast
2:15 AM 57.2 °F 39.2 °F 51% 30.01 in 10.0 mi NE 4.6 mph - N/A   Overcast
2:35 AM 57.2 °F 39.2 °F 51% 30.02 in 10.0 mi Calm Calm - N/A   Overcast
2:55 AM 57.2 °F 39.2 °F 51% 30.01 in 10.0 mi NE 3.5 mph - N/A   Mostly Cloudy
3:15 AM 57.2 °F 39.2 °F 51% 30.00 in 10.0 mi Calm Calm - N/A   Mostly Cloudy
3:35 AM 57.2 °F 37.4 °F 48% 30.00 in 10.0 mi Calm Calm - N/A   Mostly Cloudy
3:55 AM 55.4 °F 37.4 °F 51% 29.99 in 10.0 mi Calm Calm - N/A   Mostly Cloudy
4:15 AM 55.4 °F 37.4 °F 51% 29.99 in 10.0 mi NE 3.5 mph - N/A   Partly Cloudy
4:35 AM 55.4 °F 37.4 °F 51% 29.99 in 10.0 mi Calm Calm - N/A   Clear
4:55 AM 53.6 °F 37.4 °F 54% 29.99 in 10.0 mi Calm Calm - N/A   Clear
5:15 AM 53.6 °F 37.4 °F 54% 29.98 in 10.0 mi Calm Calm - N/A   Clear
5:35 AM 55.4 °F 35.6 °F 47% 29.98 in 10.0 mi Calm Calm - N/A   Clear
5:55 AM 53.6 °F 35.6 °F 51% 29.98 in 10.0 mi Calm Calm - N/A   Clear
6:15 AM 55.4 °F 35.6 °F 47% 29.98 in 10.0 mi Calm Calm - N/A   Clear
6:35 AM 55.4 °F 35.6 °F 47% 29.99 in 10.0 mi Calm Calm - N/A   Clear
6:55 AM 53.6 °F 37.4 °F 54% 29.99 in 10.0 mi Calm Calm - N/A   Clear
7:15 AM 53.6 °F 37.4 °F 54% 29.99 in 10.0 mi Calm Calm - N/A   Clear
7:35 AM 53.6 °F 37.4 °F 54% 29.99 in 10.0 mi Calm Calm - N/A   Clear
7:55 AM 55.4 °F 37.4 °F 51% 29.99 in 10.0 mi Calm Calm - N/A   Clear
8:15 AM 57.2 °F 37.4 °F 48% 30.00 in 10.0 mi Calm Calm - N/A   Clear
8:35 AM 57.2 °F 37.4 °F 48% 30.00 in 10.0 mi Calm Calm - N/A   Clear
8:55 AM 57.2 °F 37.4 °F 48% 30.00 in 10.0 mi Calm Calm - N/A   Clear
9:15 AM 57.2 °F 39.2 °F 51% 30.00 in 10.0 mi Calm Calm - N/A   Clear
9:35 AM 59.0 °F 39.2 °F 48% 30.01 in 10.0 mi Calm Calm - N/A   Clear
9:55 AM 59.0 °F 39.2 °F 48% 30.00 in 10.0 mi NNW 5.8 mph - N/A   Clear
10:15 AM 60.8 °F 39.2 °F 45% 30.00 in 10.0 mi WNW 4.6 mph - N/A   Clear
10:35 AM 60.8 °F 37.4 °F 42% 30.00 in 10.0 mi NNW 4.6 mph - N/A   Clear
10:55 AM 62.6 °F 39.2 °F 42% 29.99 in 10.0 mi NW 5.8 mph - N/A   Clear
11:15 AM 62.6 °F 37.4 °F 39% 29.99 in 10.0 mi West 6.9 mph - N/A   Clear
11:35 AM 62.6 °F 37.4 °F 39% 29.99 in 10.0 mi NW 4.6 mph - N/A   Clear
11:55 AM 64.4 °F 37.4 °F 37% 29.98 in 10.0 mi West 5.8 mph - N/A   Clear
12:15 PM 64.4 °F 37.4 °F 37% 29.98 in 10.0 mi WNW 5.8 mph - N/A   Clear
12:35 PM 64.4 °F 39.2 °F 40% 29.98 in 10.0 mi West 8.1 mph - N/A   Clear
12:50 PM 66.2 °F 39.2 °F 37% 29.98 in 10.0 mi SW 5.8 mph - N/A   Clear
1:15 PM 66.2 °F 39.2 °F 37% 29.97 in 10.0 mi West 5.8 mph - N/A   Clear
1:35 PM 64.4 °F 39.2 °F 40% 29.97 in 10.0 mi WNW 5.8 mph - N/A   Clear
1:55 PM 66.2 °F 37.4 °F 35% 29.96 in 10.0 mi Calm Calm - N/A   Clear
2:15 PM 66.2 °F 37.4 °F 35% 29.96 in 10.0 mi Calm Calm - N/A   Clear
2:35 PM 66.2 °F 37.4 °F 35% 29.95 in 10.0 mi WNW 4.6 mph - N/A   Clear
2:55 PM 66.2 °F 39.2 °F 37% 29.95 in 10.0 mi WNW 9.2 mph - N/A   Clear
3:15 PM 66.2 °F 39.2 °F 37% 29.95 in 10.0 mi WNW 5.8 mph - N/A   Clear
3:35 PM 66.2 °F 37.4 °F 35% 29.95 in 10.0 mi West 4.6 mph - N/A   Clear
3:55 PM 66.2 °F 37.4 °F 35% 29.95 in 10.0 mi West 6.9 mph - N/A   Clear
4:15 PM 66.2 °F 37.4 °F 35% 29.94 in 10.0 mi WNW 4.6 mph - N/A   Clear
4:35 PM 66.2 °F 37.4 °F 35% 29.94 in 10.0 mi West 4.6 mph - N/A   Clear
4:55 PM 66.2 °F 37.4 °F 35% 29.94 in 10.0 mi WNW 5.8 mph - N/A   Clear
5:15 PM 66.2 °F 37.4 °F 35% 29.94 in 10.0 mi WSW 3.5 mph - N/A   Clear
5:35 PM 66.2 °F 39.2 °F 37% 29.94 in 10.0 mi Calm Calm - N/A   Clear
5:55 PM 64.4 °F 37.4 °F 37% 29.94 in 10.0 mi Calm Calm - N/A   Clear
6:15 PM 64.4 °F 39.2 °F 40% 29.95 in 10.0 mi Calm Calm - N/A   Clear
6:35 PM 62.6 °F 39.2 °F 42% 29.95 in 5.0 mi Calm Calm - N/A   Clear
6:55 PM 60.8 °F 39.2 °F 45% 29.96 in 10.0 mi Calm Calm - N/A   Clear
7:15 PM 59.0 °F 39.2 °F 48% 29.96 in 10.0 mi Calm Calm - N/A   Clear
7:35 PM 59.0 °F 39.2 °F 48% 29.97 in 10.0 mi Calm Calm - N/A   Partly Cloudy
7:55 PM 59.0 °F 39.2 °F 48% 29.97 in 10.0 mi Calm Calm - N/A   Partly Cloudy
8:15 PM 59.0 °F 41.0 °F 51% 29.97 in 10.0 mi Calm Calm - N/A   Partly Cloudy
8:35 PM 59.0 °F 41.0 °F 51% 29.97 in 10.0 mi Calm Calm - N/A   Scattered Clouds
8:55 PM 59.0 °F 41.0 °F 51% 29.97 in 10.0 mi Calm Calm - N/A   Scattered Clouds
9:15 PM 57.2 °F 39.2 °F 51% 29.97 in 10.0 mi Calm Calm - N/A   Partly Cloudy
9:35 PM 57.2 °F 41.0 °F 55% 29.97 in 10.0 mi Calm Calm - N/A   Clear
9:55 PM 57.2 °F 41.0 °F 55% 29.98 in 10.0 mi Calm Calm - N/A   Clear
10:15 PM 57.2 °F 41.0 °F 55% 29.99 in 10.0 mi East 5.8 mph - N/A   Mostly Cloudy
10:35 PM 57.2 °F 41.0 °F 55% 29.98 in 10.0 mi Calm Calm - N/A   Mostly Cloudy
10:55 PM 57.2 °F 41.0 °F 55% 29.98 in 10.0 mi Calm Calm - N/A   Scattered Clouds
11:35 PM 57.2 °F 41.0 °F 55% 29.98 in 10.0 mi Calm Calm - N/A   Scattered Clouds
11:55 PM 57.2 °F 41.0 °F 55% 29.98 in 10.0 mi Calm Calm - N/A   Scattered Clouds